Wind_Speed
28 28 29 28 28 28 28 28 28 28 28 28 28 28 29 28 27 27 27 27 27 28 29 28 29 29 28 28 28 28 28 28 28 28 28 28 28 28
30 30 29 29 30 30 29 30 30 29 28 28 28 28 29 28 28 28 27 27 27 27 29 30 30 30 29 29 29 28 29 29 29 29 29 29 29 29
30 30 31 31 31 30 30 30 30 29 29 29 28 28 28 28 27 28 28 28 28 27 28 30 31 31 31 30 30 30 29 30 30 30 30 30 30 30
29 29 30 31 31 30 30 30 29 29 29 29 28 28 27 27 28 28 29 29 29 29 29 30 31 31 31 31 31 31 30 30 30 30 30 30 31 32
28 28 29 29 29 29 29 29 28 28 28 27 27 27 27 28 29 29 29 30 30 29 29 31 32 32 32 32 32 31 31 31 30 30 30 31 31 32
26 27 27 27 28 28 28 28 28 28 28 27 27 27 27 28 29 29 29 29 29 30 30 30 32 33 33 32 32 32 32 31 31 31 32 32 32 33
25 25 26 26 27 28 29 29 28 28 28 28 27 27 27 27 29 29 29 30 30 30 30 30 31 32 33 33 33 32 33 32 32 32 32 32 32 32
25 25 26 26 27 27 28 28 28 28 28 28 27 27 27 27 28 28 28 29 29 30 30 30 30 30 31 32 33 33 33 33 33 32 32 32 32 33
26 26 27 27 28 28 29 29 29 29 29 28 28 27 27 28 28 28 28 28 29 29 30 29 29 30 31 31 31 32 33 33 33 33 32 32 32 32
24 25 25 26 26 27 29 29 29 29 29 29 28 27 27 27 28 28 28 28 28 28 28 28 28 29 29 30 30 30 31 32 32 32 32 32 33 33
21 22 24 24 24 25 26 26 27 28 28 28 28 28 27 27 27 28 28 28 27 27 28 28 28 29 29 29 29 29 29 30 30 30 31 32 33 33
21 21 22 23 23 24 24 24 25 26 27 28 27 27 27 27 27 27 27 27 27 27 27 28 28 28 28 28 28 29 29 30 30 31 31 32 32 32
20 20 21 22 22 23 23 23 24 25 26 26 26 25 25 26 26 26 26 26 26 26 27 27 27 28 28 27 28 29 30 31 31 31 31 31 31 32
20 20 20 20 21 21 21 21 22 22 23 23 24 24 24 25 24 25 25 25 25 25 26 26 26 27 28 28 28 29 30 31 31 31 31 30 30 30
19 19 19 19 19 19 18 18 18 19 20 21 21 22 23 23 23 23 24 25 25 24 24 25 25 26 27 27 28 28 28 29 30 30 30 30 30 29
18 19 19 19 18 18 18 18 18 18 19 20 20 21 21 22 22 22 22 23 23 24 24 24 25 25 26 26 27 28 28 28 28 28 28 28 29 29
17 17 18 18 17 17 17 17 18 18 18 19 19 19 19 20 21 21 21 21 22 22 23 24 24 25 26 26 26 27 27 27 27 27 28 28 28 29
17 17 16 16 17 17 17 17 18 18 19 19 18 18 18 19 20 21 21 21 22 23 23 24 24 25 25 25 25 26 26 27 27 28 27 27 28 28
17 16 16 16 17 17 17 17 17 17 17 18 18 18 18 19 19 20 20 21 21 22 23 23 24 25 25 25 25 26 26 26 26 26 26 27 27 27
18 17 16 16 17 17 16 16 17 17 17 17 18 18 18 18 19 19 20 20 21 21 22 23 23 24 24 24 24 24 25 25 25 25 25 25 25 25
19 18 17 17 16 16 17 17 17 17 17 17 17 18 18 18 19 19 19 20 20 21 21 22 22 22 23 23 23 23 23 24 24 24 24 24 24 25
18 18 18 17 17 17 17 17 17 17 17 18 18 18 18 18 19 20 20 20 20 20 21 22 22 22 22 22 22 22 23 23 23 23 23 24 24 24
18 17 17 17 17 17 16 16 16 16 17 17 17 18 18 19 19 20 20 20 20 20 21 22 23 23 22 22 22 21 22 23 22 22 22 22 22 22
Wind_Direction
266 265 266 266 267 268 267 266 265 264 264 264 264 263 259 257 257 256 257 258 256 254 253 252 251 250 250 251 252 253 253 253 252 253 252 253 254 255
265 264 265 266 267 267 266 266 266 264 262 262 262 262 259 257 257 256 257 257 257 255 252 251 251 250 249 251 252 253 253 253 252 252 253 255 256 257
266 266 266 266 266 266 265 265 264 263 262 261 261 260 258 259 258 256 257 258 257 255 253 251 251 251 250 252 253 254 254 254 254 254 255 257 258 259
268 268 268 266 265 264 264 265 263 263 263 261 260 259 258 258 258 259 258 258 258 257 256 254 252 250 251 253 253 253 253 254 254 256 257 258 260 261
269 269 269 267 264 263 264 264 263 264 263 261 259 257 256 257 259 260 259 258 259 258 257 255 254 253 254 254 253 252 252 253 255 257 258 260 262 263
271 269 267 267 265 263 263 263 263 263 261 260 258 257 256 257 259 261 260 260 259 259 257 257 256 255 254 253 252 252 252 253 256 258 259 260 262 263
273 271 270 269 268 265 264 264 263 263 261 260 260 259 258 259 261 261 261 260 259 259 258 258 258 256 254 253 253 253 253 254 256 258 260 260 261 263
275 274 271 270 269 267 265 264 264 264 261 261 261 260 259 260 261 260 260 260 259 258 258 257 257 256 256 255 254 254 253 255 256 258 260 260 261 263
275 272 270 270 268 267 266 265 264 262 261 261 261 261 260 260 260 259 258 259 259 257 256 256 256 255 256 255 255 256 256 255 257 259 260 261 263 264
278 274 272 271 270 269 268 265 263 262 262 261 260 261 260 259 259 258 258 259 260 259 256 255 256 255 255 256 255 256 256 256 257 258 259 262 265 266
280 277 274 272 270 270 268 266 263 262 261 259 259 259 258 258 258 258 258 258 258 259 256 255 255 254 254 256 257 256 257 258 259 260 261 263 266 267
281 280 278 275 272 271 270 266 265 264 261 259 257 258 259 259 259 259 259 258 257 257 257 256 255 254 256 256 258 258 257 258 260 262 264 265 266 268
282 280 279 277 276 273 270 269 267 265 263 260 257 257 258 258 259 257 256 257 256 256 256 257 256 256 258 257 258 260 259 260 261 263 265 265 266 268
282 280 280 279 278 274 273 271 266 264 264 261 257 257 258 259 258 255 254 255 256 257 256 257 259 258 258 260 260 261 261 260 260 262 264 266 268 270
283 280 279 279 277 274 272 270 267 265 264 261 258 258 258 257 257 256 254 255 257 259 258 258 260 260 260 262 262 262 262 261 260 262 264 266 267 269
287 283 282 281 279 277 276 273 270 268 265 262 260 259 259 259 259 256 254 256 257 258 259 258 261 262 263 264 263 263 263 264 263 264 264 266 267 269
291 289 285 280 278 278 276 275 273 269 268 265 264 263 261 259 259 258 258 257 258 259 259 261 262 265 264 263 263 264 264 264 265 265 265 266 269 272
295 293 289 282 279 278 276 275 274 271 270 270 267 266 264 260 260 259 258 257 258 258 259 261 263 265 266 264 265 265 266 266 267 267 268 269 271 272
297 296 293 286 282 281 279 277 275 273 273 273 270 266 264 263 262 260 259 258 258 260 262 263 264 265 266 266 265 266 267 267 267 267 269 272 273 274
296 294 291 286 283 281 279 277 275 274 273 273 272 267 264 263 261 261 261 260 259 260 263 265 266 266 266 265 266 265 266 268 269 269 270 273 275 276
294 292 289 285 281 279 279 278 277 275 273 274 273 269 265 263 261 261 262 262 261 262 265 267 268 268 266 267 266 265 266 267 269 270 271 274 276 276
292 289 287 283 279 278 278 277 276 274 274 275 272 267 265 265 265 265 264 264 263 264 266 267 268 269 269 270 270 269 268 266 268 272 274 276 277 278
290 289 288 286 282 280 280 279 276 275 277 277 274 270 268 269 268 267 266 266 265 265 266 268 268 269 271 271 269 269 270 270 271 272 273 275 278 279
Height
5755 5756 5756 5757 5757 5757 5757 5758 5760 5761 5762 5762 5762 5762 5763 5765 5767 5768 5769 5770 5772 5773 5776 5778 5780 5783 5785 5787 5789 5791 5793 5795 5796 5798 5800 5801 5803 5805
5747 5747 5748 5748 5748 5748 5749 5750 5751 5752 5753 5754 5754 5754 5755 5757 5759 5760 5761 5763 5764 5765 5768 5770 5772 5775 5777 5779 5781 5784 5786 5787 5789 5791 5792 5794 5796 5797
5738 5738 5738 5739 5739 5739 5740 5741 5742 5743 5744 5745 5746 5746 5747 5749 5750 5752 5753 5755 5756 5758 5760 5762 5764 5766 5769 5771 5773 5776 5778 5780 5781 5783 5785 5786 5788 5789
5729 5729 5729 5730 5730 5730 5731 5732 5733 5734 5735 5737 5737 5738 5739 5740 5742 5743 5745 5747 5748 5750 5751 5753 5755 5758 5760 5763 5765 5767 5769 5771 5773 5775 5777 5778 5779 5781
5720 5720 5721 5721 5721 5722 5722 5723 5724 5725 5726 5727 5729 5730 5731 5732 5733 5735 5736 5738 5740 5741 5742 5745 5747 5749 5752 5754 5756 5759 5761 5763 5765 5767 5768 5770 5771 5772
5712 5712 5712 5712 5712 5713 5714 5715 5715 5716 5717 5718 5720 5722 5723 5724 5725 5726 5728 5729 5731 5732 5734 5736 5738 5740 5743 5745 5748 5750 5752 5754 5756 5758 5760 5761 5762 5763
5704 5703 5703 5704 5704 5704 5705 5706 5707 5707 5708 5710 5712 5713 5715 5716 5717 5718 5719 5720 5722 5723 5725 5727 5729 5731 5733 5736 5738 5741 5743 5745 5747 5749 5750 5752 5752 5753
5695 5695 5695 5695 5695 5695 5696 5697 5698 5699 5700 5701 5703 5705 5706 5707 5708 5709 5710 5712 5714 5716 5716 5718 5720 5722 5724 5727 5729 5731 5734 5736 5738 5740 5741 5742 5743 5744
5687 5687 5686 5686 5686 5687 5687 5688 5689 5690 5691 5693 5694 5696 5697 5698 5699 5700 5701 5703 5705 5706 5707 5709 5711 5713 5715 5717 5719 5722 5724 5726 5728 5730 5731 5733 5733 5734
5679 5679 5678 5678 5678 5678 5678 5679 5680 5681 5682 5684 5685 5687 5688 5689 5690 5692 5693 5694 5696 5698 5699 5701 5703 5705 5707 5708 5710 5712 5714 5717 5719 5720 5722 5723 5723 5724
5673 5672 5671 5671 5670 5670 5670 5670 5671 5672 5673 5674 5676 5677 5679 5680 5681 5683 5685 5686 5688 5689 5691 5693 5695 5696 5698 5700 5701 5703 5705 5707 5709 5710 5712 5713 5713 5713
5666 5665 5664 5663 5662 5662 5662 5662 5663 5663 5664 5665 5667 5669 5670 5671 5672 5674 5676 5678 5680 5682 5683 5684 5686 5687 5689 5691 5692 5694 5696 5698 5699 5701 5702 5702 5703 5702
5660 5659 5657 5656 5655 5655 5654 5654 5654 5654 5655 5656 5658 5660 5661 5663 5664 5666 5667 5669 5672 5674 5675 5676 5678 5679 5681 5683 5684 5685 5687 5688 5689 5690 5691 5692 5692 5692
5653 5652 5651 5650 5649 5648 5647 5647 5646 5646 5647 5648 5650 5652 5653 5655 5656 5657 5659 5661 5663 5665 5666 5668 5670 5671 5672 5674 5676 5677 5677 5678 5680 5681 5682 5682 5682 5682
5647 5646 5644 5643 5642 5641 5640 5640 5640 5640 5641 5642 5643 5644 5646 5647 5648 5650 5651 5653 5655 5657 5658 5659 5661 5662 5663 5665 5667 5668 5668 5669 5670 5671 5672 5673 5673 5673
5641 5640 5638 5637 5636 5635 5634 5634 5634 5635 5635 5636 5636 5637 5638 5639 5640 5642 5643 5645 5647 5649 5650 5651 5652 5654 5655 5656 5658 5659 5659 5660 5661 5662 5663 5663 5663 5663
5636 5634 5633 5632 5631 5630 5629 5629 5629 5629 5629 5630 5630 5631 5632 5633 5633 5635 5636 5637 5639 5641 5642 5643 5644 5645 5646 5648 5649 5650 5650 5651 5652 5653 5654 5654 5654 5654
5631 5629 5627 5626 5625 5625 5624 5624 5624 5623 5623 5623 5624 5625 5625 5626 5627 5628 5629 5630 5632 5633 5635 5636 5636 5637 5638 5639 5640 5641 5642 5643 5643 5644 5644 5645 5645 5645
5626 5624 5622 5621 5620 5619 5619 5618 5618 5617 5617 5617 5618 5619 5619 5620 5620 5621 5622 5624 5625 5626 5627 5628 5628 5629 5630 5632 5633 5633 5633 5634 5635 5635 5635 5636 5636 5636
5620 5618 5617 5615 5614 5613 5613 5612 5612 5612 5612 5612 5612 5612 5613 5613 5614 5615 5616 5617 5618 5619 5620 5620 5621 5621 5622 5624 5625 5625 5625 5626 5627 5627 5627 5627 5627 5627
5615 5613 5611 5610 5609 5608 5607 5607 5606 5606 5606 5606 5606 5606 5607 5607 5608 5609 5610 5610 5611 5612 5613 5613 5613 5614 5614 5615 5616 5617 5617 5618 5618 5619 5619 5619 5619 5618
5609 5607 5605 5604 5603 5602 5601 5601 5601 5600 5600 5600 5600 5600 5601 5601 5602 5602 5603 5604 5604 5605 5606 5606 5606 5607 5607 5608 5609 5609 5610 5610 5610 5610 5610 5611 5611 5611
5603 5601 5600 5598 5597 5596 5596 5595 5595 5595 5595 5594 5594 5594 5594 5595 5595 5596 5596 5597 5597 5598 5599 5599 5599 5600 5600 5600 5601 5601 5602 5602 5602 5602 5603 5602 5603 5603